******************************************************************************* JPL/HORIZONS Kiess (C/1911 N1) 2026-Jul-19 08:14:59 Rec #:90001880 (+COV) Soln.date: 2021-Apr-22_15:26:26 # obs: 86 (71 days) IAU76/J2000 helio. ecliptic osc. elements (au, days, deg., period=Julian yrs): EPOCH= 2419247.5 ! 1911-Jul-30.0000000 (TDB) RMSW= n.a. EC= .9962766200566044 QR= .6838291180040257 TP= 2419218.1755743804 OM= 158.6654472656687 W= 110.3699109001606 IN= 148.4199271055019 A= 183.6581623148575 MA= .01161229971563706 ADIST= 366.6324955117109 PER= 2488.9923049823 N= .000395994 ANGMOM= .02009859 DAN= 2.08983 DDN= 1.01361 L= 45.1157837 B= 29.402428 MOID= .00276612 TP= 1911-Jun-30.6755743804 Comet physical (GM= km^3/s^2; RAD= km): GM= n.a. RAD= n.a. M1= n.a. M2= n.a. k1= n.a. k2= n.a. PHCOF= n.a. COMET comments 1: soln ref.= JPL#6, data arc: 1911-07-09 to 1911-09-18 2: ******************************************************************************* ******************************************************************************* Ephemeris / WWW_USER Sun Jul 19 08:14:59 2026 Pasadena, USA / Horizons ******************************************************************************* Target body name: Kiess (C/1911 N1) {source: JPL#6} Center body name: Solar System Barycenter (0) {source: DE441} Center-site name: BODY CENTER ******************************************************************************* Start time : A.D. 1800-Jan-01 00:00:00.0000 TDB Stop time : A.D. 2200-Jan-01 00:00:00.0000 TDB Step-size : 400 calendar years ******************************************************************************* Center geodetic : 0.0, 0.0, 0.0 {E-lon(deg),Lat(deg),Alt(km)} Center cylindric: 0.0, 0.0, 0.0 {E-lon(deg),Dxy(km),Dz(km)} Center radii : (undefined) Keplerian GM : 2.9630927493968080E-04 au^3/d^2 Small perturbers: Yes {source: SB441-N16} Output units : AU-D, deg, Julian Day Number (Tp) Calendar mode : Mixed Julian/Gregorian Output type : GEOMETRIC osculating elements Output format : 10 Reference frame : Ecliptic of J2000.0 ******************************************************************************* Initial IAU76/J2000 heliocentric ecliptic osculating elements (au, days, deg.): EPOCH= 2419247.5 ! 1911-Jul-30.0000000 (TDB) RMSW= n.a. EC= .9962766200566044 QR= .6838291180040257 TP= 2419218.1755743804 OM= 158.6654472656687 W= 110.3699109001606 IN= 148.4199271055019 Equivalent ICRF heliocentric cartesian coordinates (au, au/d): X= 8.793720584853829E-01 Y=-2.126222197209788E-01 Z= 5.652767654614199E-04 VX= 9.200304862690196E-03 VY=-1.565391261682426E-02 VZ=-1.796819487374544E-02 Comet physical (GM= km^3/s^2; RAD= km): GM= n.a. RAD= n.a. M1= n.a. M2= n.a. k1= n.a. k2= n.a. PHCOF= n.a. ******************************************************************************* JDTDB EC QR IN OM W Tp N MA TA A AD PR ******************************************************************************* $$SOE 2378496.500000000 = A.D. 1800-Jan-01 00:00:00.0000 TDB EC= 9.956606399345583E-01 QR= 6.821215586836996E-01 IN= 1.487475054894201E+02 OM= 1.582905827806684E+02 W = 1.101126161956277E+02 Tp= 2419217.963566059247 N = 5.004274493501992E-04 MA= 3.396218618538299E+02 TA= 1.868750321613593E+02 A = 1.571940443744419E+02 AD= 3.137059671902001E+02 PR= 7.193849986995256E+05 2524593.500000000 = A.D. 2200-Jan-01 00:00:00.0000 TDB EC= 9.957842401498196E-01 QR= 6.842636354415423E-01 IN= 1.484717647813159E+02 OM= 1.590582352396424E+02 W = 1.107042231430469E+02 Tp= 2419218.389044352807 N = 4.769511055361894E-04 MA= 5.025877566629445E+01 TA= 1.759817475377459E+02 A = 1.623108667853167E+02 AD= 3.239374699351919E+02 PR= 7.547943506605090E+05 $$EOE ******************************************************************************* TIME Barycentric Dynamical Time ("TDB" or T_eph) output was requested. This continuous coordinate time is equivalent to the relativistic proper time of a clock at rest in a reference frame co-moving with the solar system barycenter but outside the system's gravity well. It is the independent variable in the solar system relativistic equations of motion. TDB runs at a uniform rate of one SI second per second and is independent of irregularities in Earth's rotation. CALENDAR SYSTEM Mixed calendar mode was active such that calendar dates after AD 1582-Oct-15 (if any) are in the modern Gregorian system. Dates prior to 1582-Oct-5 (if any) are in the Julian calendar system, which is automatically extended for dates prior to its adoption on 45-Jan-1 BC. The Julian calendar is useful for matching historical dates. The Gregorian calendar more accurately corresponds to the Earth's orbital motion and seasons. A "Gregorian-only" calendar mode is available if such physical events are the primary interest. REFERENCE FRAME AND COORDINATES Ecliptic at the standard reference epoch Reference epoch: J2000.0 X-Y plane: adopted Earth orbital plane at the reference epoch Note: IAU76 obliquity of 84381.448 arcseconds wrt ICRF X-Y plane X-axis : ICRF Z-axis : perpendicular to the X-Y plane in the directional (+ or -) sense of Earth's north pole at the reference epoch. Symbol meaning [1 au= 149597870.700 km, 1 day= 86400.0 s]: JDTDB Julian Day Number, Barycentric Dynamical Time EC Eccentricity, e QR Periapsis distance, q (au) IN Inclination w.r.t X-Y plane, i (degrees) OM Longitude of Ascending Node, OMEGA, (degrees) W Argument of Perifocus, w (degrees) Tp Time of periapsis (Julian Day Number) N Mean motion, n (degrees/day) MA Mean anomaly, M (degrees) TA True anomaly, nu (degrees) A Semi-major axis, a (au) AD Apoapsis distance (au) PR Sidereal orbit period (day) ABERRATIONS AND CORRECTIONS Geometric osculating elements have NO corrections or aberrations applied. Computations by ... Solar System Dynamics Group, Horizons On-Line Ephemeris System 4800 Oak Grove Drive, Jet Propulsion Laboratory Pasadena, CA 91109 USA General site: https://ssd.jpl.nasa.gov/ Mailing list: https://ssd.jpl.nasa.gov/email_list.html System news : https://ssd.jpl.nasa.gov/horizons/news.html User Guide : https://ssd.jpl.nasa.gov/horizons/manual.html Connect : browser https://ssd.jpl.nasa.gov/horizons/app.html#/x API https://ssd-api.jpl.nasa.gov/doc/horizons.html command-line telnet ssd.jpl.nasa.gov 6775 e-mail/batch https://ssd.jpl.nasa.gov/ftp/ssd/horizons_batch.txt scripts https://ssd.jpl.nasa.gov/ftp/ssd/SCRIPTS Inquiries : Jon.D.Giorgini@jpl.nasa.gov ******************************************************************************* !$$SOF COMMAND = '1911 N1' TABLE_TYPE = 'ELEMENTS' START_TIME = '1800-01-01' STOP_TIME = '2200-01-01' STEP_SIZE = '400 years' CENTER = '@0' OUT_UNITS = 'AU-D'